This demonstration page uses our WeatherBlox Daily Observations layout. Learn more.

Left ArrowRight Arrow

34.16533, -84.80231

Hourly Observations for October 7, 2015

Temp ( °F °C ) Dew Point ( °F °C ) Humidity (%) Winds ( mph kmh ) Pressure ( in mb ) Visibility ( mi km ) Precip ( " mm )
12:53 am 00:53 Clear 60 15.6 59 15 96 96 Calm 30.01 1016 7 11 0.00 0.00
1:53 am 01:53 Clear 59 15 59 15 100 100 Calm 30.00 1016 7 11 0.00 0.00
2:26 am 02:26 Partly Cloudy 58 14.4 58 14.4 100 100 Calm 30.03 1017 9 14 0.00 0.00
2:34 am 02:34 Mostly Cloudy 58 14.4 58 14.4 100 100 Calm 30.03 1017 8 13 0.00 0.00
2:53 am 02:53 Mostly Cloudy 58 14.4 58 14.4 100 100 Calm 30.00 1016 8 13 0.00 0.00
3:00 am 03:00 Partly Cloudy 58 14.4 58 14.4 100 100 Calm 30.03 1017 9 14 0.00 0.00
3:53 am 03:53 Clear 58 14.4 57 13.9 97 97 Calm 30.00 1016 8 13 0.00 0.00
4:53 am 04:53 Clear 60 15.6 59 15 96 96 ESE 3 6 30.00 1016 10 16 0.00 0.00
5:53 am 05:53 Clear with Mist and Fog 59 15 59 15 100 100 Calm 30.01 1016 5 8 0.00 0.00
6:33 am 06:33 Partly Cloudy with Mist and Fog 60 15.6 59 15 96 96 SE 3 6 30.03 1017 3 4 0.00 0.00
6:42 am 06:42 Mostly Cloudy with Mist and Fog 61 16.1 60 15.6 97 97 Calm 30.03 1017 2 3 0.00 0.00
6:49 am 06:49 Mostly Cloudy with Mist and Fog 61 16 61 16 100 100 ESE 3 6 30.03 1017 3 4 0.00 0.00
6:53 am 06:53 Cloudy with Mist and Fog 61 16.1 61 16.1 100 100 Calm 30.04 1017 2 3 0.00 0.00
7:00 am 07:00 Cloudy with Mist and Fog 61 16.1 61 16.1 100 100 Calm 30.03 1017 2 2 0.00 0.00
7:08 am 07:08 Cloudy with Mist and Fog 61 16.1 61 16.1 100 100 Calm 30.03 1017 3 5 0.00 0.00
7:29 am 07:29 Partly Cloudy with Mist and Fog 60 15.6 60 15.6 100 100 Calm 30.06 1018 5 8 0.00 0.00
7:53 am 07:53 Mostly Cloudy with Mist and Fog 60 15.6 60 15.6 100 100 Calm 30.06 1018 5 8 0.00 0.00
8:37 am 08:37 Partly Cloudy 63 17.2 62 16.7 97 97 Calm 30.09 1019 9 14 0.00 0.00
8:53 am 08:53 Sunny 63 17.2 62 16.7 97 97 SE 3 6 30.09 1019 10 16 0.00 0.00
9:53 am 09:53 Sunny 67 19.4 61 16.1 81 81 VRB 5 7 30.10 1019 10 16 0.00 0.00
10:53 am 10:53 Sunny 71 21.7 58 14.4 63 63 VRB 3 6 30.11 1020 10 16 0.00 0.00
11:53 am 11:53 Sunny 75 23.9 56 13.3 52 52 VRB 6 9 30.09 1019 10 16 0.00 0.00
12:53 pm 12:53 Sunny 77 25 56 13.3 48 48 VRB 3 6 30.09 1019 10 16 0.00 0.00
1:53 pm 13:53 Sunny 79 26.1 57 13.9 47 47 N 3 6 30.08 1019 10 16 0.00 0.00
2:53 pm 14:53 Sunny 80 26.7 59 15 49 49 Calm 30.05 1018 10 16 0.00 0.00
3:53 pm 15:53 Sunny 82 27.8 58 14.4 44 44 VRB 5 7 30.03 1017 10 16 0.00 0.00
4:53 pm 16:53 Sunny 80 26.7 60 15.6 51 51 ESE 3 6 30.03 1017 10 16 0.00 0.00
5:53 pm 17:53 Sunny 78 25.6 59 15 52 52 Calm 30.03 1017 10 16 0.00 0.00
6:53 pm 18:53 Sunny 69 20.6 66 18.9 90 90 Calm 30.03 1017 10 16 0.00 0.00
7:53 pm 19:53 Clear 65 18.3 63 17.2 93 93 Calm 30.04 1017 10 16 0.00 0.00
8:53 pm 20:53 Clear 63 17.2 62 16.7 97 97 Calm 30.05 1018 10 16 0.00 0.00
9:53 pm 21:53 Clear 61 16.1 61 16.1 100 100 Calm 30.07 1018 10 16 0.00 0.00
10:53 pm 22:53 Clear 63 17.2 60 15.6 90 90 Calm 30.08 1019 10 16 0.00 0.00
11:53 pm 23:53 Clear 59 15 59 15 100 100 Calm 30.08 1019 10 16 0.00 0.00

Powered by AerisWeather